User: anonymous   Login
Location: Cluny
(50.9333°N, 112.8167°W)
Time: 06:20:09
(UTC-07:00)
Language:

Cosmos 1743 Rocket - Orbit

View from above orbital plane
View from above orbital plane
View from above satellite
View from above satellite

Ground track
Ground track

The orbit data is extracted from the following two-line orbital elements,

1 16720U 86034B   17023.56267396  .00000084  00000-0  73178-5 0  9997
2 16720  82.5532  16.3304 0019267 215.0687 284.6942 14.83271538657829
Epoch (UTC): 23 January 2017 13:30:15
Eccentricity: 0.0019267
inclination: 82.5532°
perigee height: 605 km
apogee height: 632 km
right ascension of ascending node: 16.3304°
argument of perigee: 215.0687°
revolutions per day: 14.83271538
mean anomaly at epoch: 284.6942°
orbit number at epoch: 65782

The dashed part of the orbit path shows where the satellite is in the earth's shadow,  

DLR